User: anonymous   Login
Location: Unspecified
(0.0000°N, 0.0000°E)
Time: 22:14:16
(UTC+00:00)
Language:

DELFI C3 - Orbit

View from above orbital plane
View from above orbital plane
View from above satellite
View from above satellite

Ground track
Ground track

The orbit data is extracted from the following two-line orbital elements,

1 32789U 08021G   18142.73174527 +.00000652 +00000-0 +48812-4 0  9992
2 32789 097.5138 198.1847 0013216 032.6026 327.6014 15.06022598547854
Epoch (UTC): 22 May 2018 17:33:42
Eccentricity: 0.0013216
inclination: 97.5138°
perigee height: 539 km
apogee height: 557 km
right ascension of ascending node: 198.1847°
argument of perigee: 32.6026°
revolutions per day: 15.06022598
mean anomaly at epoch: 327.6014°
orbit number at epoch: 54785

The dashed part of the orbit path shows where the satellite is in the earth's shadow,  

DLR